WLF1PT EGGP-EGPH

Flight info

Callsign WLF1PT
Flight time 0h 39m
Altitude 24000
Route POL N601 INPIP
Aircraft B738/M-SDE2E3FGHIRWXY/LB1

Departure

Time 2026-04-26 21:36
Airport Liverpool John Lennon Airport (EGGP)

Arrival

Time 2026-04-26 22:16
Airport Edinburgh Airport (EGPH)
Time Latitude Longitude Altitude Speed Heading
2026-04-26 21:11 53.33641 -2.86334 84 ft 0 kts 355°
2026-04-26 21:26 53.33631 -2.86332 84 ft 4 kts 355°
2026-04-26 21:27 53.33609 -2.86329 84 ft 3 kts 354°
2026-04-26 21:27 53.33587 -2.86317 84 ft 4 kts 301°
2026-04-26 21:27 53.33582 -2.86278 88 ft 4 kts 265°
2026-04-26 21:27 53.33584 -2.86235 88 ft 4 kts 265°
2026-04-26 21:28 53.33586 -2.86210 87 ft 0 kts 265°
2026-04-26 21:30 53.33585 -2.86217 87 ft 2 kts 265°
2026-04-26 21:31 53.33578 -2.86248 84 ft 5 kts 239°
2026-04-26 21:31 53.33534 -2.86310 86 ft 12 kts 201°
2026-04-26 21:31 53.33472 -2.86241 83 ft 14 kts 89°
2026-04-26 21:31 53.33480 -2.86079 87 ft 14 kts 87°
2026-04-26 21:32 53.33486 -2.85921 83 ft 13 kts 86°
2026-04-26 21:32 53.33494 -2.85768 88 ft 14 kts 85°
2026-04-26 21:32 53.33502 -2.85602 86 ft 15 kts 85°
2026-04-26 21:32 53.33510 -2.85423 83 ft 16 kts 86°
2026-04-26 21:33 53.33518 -2.85220 85 ft 20 kts 86°
2026-04-26 21:33 53.33531 -2.84968 84 ft 23 kts 84°
2026-04-26 21:33 53.33543 -2.84689 79 ft 26 kts 85°
2026-04-26 21:33 53.33556 -2.84393 72 ft 26 kts 86°
2026-04-26 21:34 53.33571 -2.84100 73 ft 24 kts 85°
2026-04-26 21:34 53.33584 -2.83814 68 ft 24 kts 87°
2026-04-26 21:34 53.33595 -2.83542 84 ft 23 kts 85°
2026-04-26 21:34 53.33565 -2.83319 90 ft 16 kts 143°
2026-04-26 21:35 53.33459 -2.83295 81 ft 9 kts 193°
2026-04-26 21:35 53.33435 -2.83373 84 ft 0 kts 268°
2026-04-26 21:35 53.33435 -2.83374 80 ft 1 kts 268°
2026-04-26 21:35 53.33434 -2.83418 80 ft 15 kts 267°
2026-04-26 21:36 53.33407 -2.84030 75 ft 89 kts 265°
2026-04-26 21:36 53.33367 -2.84884 69 ft 131 kts 265°
2026-04-26 21:36 53.33264 -2.87298 473 ft 172 kts 267°
2026-04-26 21:36 53.33205 -2.89474 860 ft 199 kts 269°
2026-04-26 21:37 53.33169 -2.91815 1554 ft 201 kts 276°
2026-04-26 21:37 53.33637 -2.94059 2056 ft 215 kts 306°
2026-04-26 21:37 53.34910 -2.95683 2208 ft 247 kts 340°
2026-04-26 21:37 53.36654 -2.95850 2786 ft 260 kts 14°
2026-04-26 21:38 53.38329 -2.94727 3595 ft 260 kts 21°
2026-04-26 21:38 53.40055 -2.93683 3901 ft 263 kts 16°
2026-04-26 21:38 53.41831 -2.92829 3997 ft 269 kts 15°
2026-04-26 21:38 53.43629 -2.91952 4001 ft 268 kts 15°
2026-04-26 21:39 53.45404 -2.91028 3993 ft 267 kts 19°
2026-04-26 21:39 53.46913 -2.89302 3995 ft 267 kts 52°
2026-04-26 21:39 53.47888 -2.86694 4002 ft 267 kts 60°
2026-04-26 21:39 53.48817 -2.83989 3997 ft 268 kts 60°
2026-04-26 21:40 53.49754 -2.81285 3997 ft 268 kts 59°
2026-04-26 21:40 53.50701 -2.78575 4000 ft 269 kts 59°
2026-04-26 21:40 53.51650 -2.75867 3996 ft 270 kts 59°
2026-04-26 21:40 53.52604 -2.73149 3997 ft 270 kts 59°
2026-04-26 21:41 53.53558 -2.70429 3997 ft 270 kts 59°
2026-04-26 21:41 53.54512 -2.67707 3994 ft 270 kts 59°
2026-04-26 21:41 53.55464 -2.64990 3994 ft 270 kts 59°
2026-04-26 21:41 53.56417 -2.62266 3999 ft 270 kts 59°
2026-04-26 21:42 53.57370 -2.59541 3996 ft 270 kts 59°
2026-04-26 21:42 53.58320 -2.56819 3993 ft 270 kts 59°
2026-04-26 21:42 53.59273 -2.54086 3995 ft 270 kts 59°
2026-04-26 21:42 53.60225 -2.51356 3997 ft 270 kts 59°
2026-04-26 21:43 53.61174 -2.48628 3990 ft 270 kts 59°
2026-04-26 21:43 53.62122 -2.45901 3989 ft 270 kts 59°
2026-04-26 21:43 53.63068 -2.43177 3997 ft 269 kts 59°
2026-04-26 21:43 53.64011 -2.40456 3994 ft 269 kts 59°
2026-04-26 21:44 53.64954 -2.37733 3996 ft 269 kts 59°
2026-04-26 21:44 53.65899 -2.35005 3992 ft 269 kts 60°
2026-04-26 21:44 53.66840 -2.32282 3992 ft 269 kts 60°
2026-04-26 21:44 53.67885 -2.29668 4030 ft 272 kts 41°
2026-04-26 21:45 53.69570 -2.28364 4661 ft 271 kts
2026-04-26 21:45 53.71426 -2.28336 5497 ft 270 kts 358°
2026-04-26 21:45 53.73340 -2.28401 6277 ft 274 kts 357°
2026-04-26 21:45 53.75228 -2.28468 7046 ft 276 kts 357°
2026-04-26 21:46 53.77163 -2.28530 7796 ft 280 kts 357°
2026-04-26 21:46 53.79124 -2.28583 8561 ft 283 kts 358°
2026-04-26 21:46 53.81107 -2.28630 9350 ft 287 kts 358°
2026-04-26 21:46 53.83117 -2.28672 10156 ft 291 kts 358°
2026-04-26 21:47 53.85206 -2.28714 10514 ft 312 kts 358°
2026-04-26 21:47 53.87460 -2.28757 10700 ft 336 kts 358°
2026-04-26 21:47 53.89863 -2.28800 11002 ft 353 kts 358°
2026-04-26 21:47 53.92347 -2.28842 11633 ft 359 kts 358°
2026-04-26 21:48 53.94852 -2.28884 12414 ft 361 kts 358°
2026-04-26 21:48 53.97379 -2.28927 13215 ft 364 kts 359°
2026-04-26 21:48 53.99927 -2.28999 13986 ft 368 kts 355°
2026-04-26 21:48 54.02467 -2.29666 14711 ft 370 kts 344°
2026-04-26 21:49 54.04892 -2.31115 15480 ft 371 kts 336°
2026-04-26 21:49 54.07279 -2.32825 16239 ft 373 kts 336°
2026-04-26 21:49 54.09678 -2.34553 16966 ft 377 kts 336°
2026-04-26 21:49 54.12115 -2.36276 17692 ft 381 kts 337°
2026-04-26 21:50 54.14576 -2.37992 18413 ft 384 kts 338°
2026-04-26 21:50 54.16221 -2.39134 18836 ft 387 kts 338°
2026-04-26 21:50 54.19585 -2.41463 19610 ft 393 kts 337°
2026-04-26 21:50 54.22126 -2.43222 20180 ft 397 kts 337°
2026-04-26 21:51 54.24700 -2.45007 20772 ft 400 kts 336°
2026-04-26 21:51 54.27261 -2.46786 21358 ft 403 kts 336°
2026-04-26 21:51 54.29906 -2.48627 21944 ft 407 kts 336°
2026-04-26 21:51 54.32516 -2.50446 22464 ft 411 kts 336°
2026-04-26 21:52 54.35174 -2.52302 23011 ft 414 kts 336°
2026-04-26 21:52 54.37860 -2.54179 23553 ft 418 kts 336°
2026-04-26 21:52 54.40562 -2.56071 24038 ft 421 kts 335°
2026-04-26 21:52 54.43287 -2.57981 24269 ft 424 kts 335°
2026-04-26 21:53 54.46025 -2.59903 24292 ft 426 kts 335°
2026-04-26 21:53 54.48767 -2.61830 24303 ft 423 kts 335°
2026-04-26 21:53 54.51476 -2.63738 24296 ft 420 kts 335°
2026-04-26 21:53 54.54152 -2.65633 24297 ft 420 kts 335°
2026-04-26 21:54 54.56847 -2.67547 24300 ft 420 kts 335°
2026-04-26 21:54 54.59554 -2.69474 24301 ft 420 kts 335°
2026-04-26 21:54 54.62251 -2.71395 24291 ft 420 kts 335°
2026-04-26 21:54 54.64951 -2.73320 24296 ft 420 kts 335°
2026-04-26 21:55 54.67656 -2.75250 24303 ft 421 kts 335°
2026-04-26 21:55 54.70364 -2.77185 24300 ft 421 kts 335°
2026-04-26 21:55 54.73074 -2.79123 24313 ft 422 kts 335°
2026-04-26 21:55 54.75792 -2.81064 24304 ft 422 kts 335°
2026-04-26 21:56 54.78513 -2.83009 24300 ft 423 kts 335°
2026-04-26 21:56 54.81232 -2.84954 24296 ft 423 kts 335°
2026-04-26 21:56 54.83945 -2.86900 24295 ft 423 kts 335°
2026-04-26 21:56 54.86670 -2.88857 24297 ft 423 kts 335°
2026-04-26 21:57 54.89378 -2.90807 24063 ft 419 kts 335°
2026-04-26 21:57 54.92016 -2.92713 23633 ft 409 kts 335°
2026-04-26 21:57 54.94589 -2.94576 23204 ft 395 kts 335°
2026-04-26 21:57 54.97109 -2.96406 22839 ft 391 kts 335°
2026-04-26 21:58 54.99609 -2.98227 22486 ft 388 kts 334°
2026-04-26 21:58 55.02095 -3.00040 22118 ft 386 kts 334°
2026-04-26 21:58 55.04564 -3.01842 21756 ft 384 kts 334°
2026-04-26 21:58 55.07025 -3.03640 21397 ft 382 kts 334°
2026-04-26 21:59 55.09465 -3.05423 21053 ft 380 kts 334°
2026-04-26 21:59 55.11905 -3.07209 20690 ft 379 kts 334°
2026-04-26 21:59 55.14333 -3.08989 20338 ft 377 kts 334°
2026-04-26 21:59 55.16765 -3.10773 19802 ft 381 kts 334°
2026-04-26 22:00 55.19207 -3.12564 19234 ft 381 kts 335°
2026-04-26 22:00 55.21618 -3.14332 18653 ft 371 kts 335°
2026-04-26 22:00 55.23969 -3.16056 18046 ft 360 kts 334°
2026-04-26 22:00 55.26220 -3.17711 17474 ft 350 kts 334°
2026-04-26 22:01 55.28436 -3.19338 16938 ft 340 kts 335°
2026-04-26 22:01 55.30719 -3.20295 16394 ft 339 kts 355°
2026-04-26 22:01 55.33053 -3.20116 15928 ft 332 kts
2026-04-26 22:01 55.35340 -3.19745 15400 ft 327 kts
2026-04-26 22:02 55.37579 -3.19345 14915 ft 321 kts
2026-04-26 22:02 55.39043 -3.19085 14593 ft 317 kts
2026-04-26 22:02 55.41953 -3.18584 13940 ft 311 kts
2026-04-26 22:02 55.44105 -3.18227 13430 ft 311 kts
2026-04-26 22:03 55.45534 -3.17997 13108 ft 313 kts
2026-04-26 22:03 55.47719 -3.17649 12611 ft 316 kts
2026-04-26 22:03 55.49915 -3.17302 12140 ft 318 kts
2026-04-26 22:03 55.52130 -3.16953 11634 ft 321 kts
2026-04-26 22:04 55.54359 -3.16601 11137 ft 322 kts
2026-04-26 22:04 55.56599 -3.16248 10650 ft 324 kts
2026-04-26 22:04 55.58852 -3.15893 10171 ft 326 kts
2026-04-26 22:04 55.61058 -3.15541 10170 ft 308 kts
2026-04-26 22:05 55.63133 -3.15211 10043 ft 290 kts
2026-04-26 22:05 55.65097 -3.14898 9790 ft 281 kts
2026-04-26 22:05 55.67034 -3.14593 9447 ft 276 kts
2026-04-26 22:05 55.68939 -3.14293 8968 ft 274 kts
2026-04-26 22:06 55.70830 -3.13994 8556 ft 270 kts
2026-04-26 22:06 55.72669 -3.13599 8253 ft 264 kts 12°
2026-04-26 22:06 55.74401 -3.12563 7863 ft 262 kts 18°
2026-04-26 22:06 55.76068 -3.11416 7497 ft 259 kts 19°
2026-04-26 22:07 55.77740 -3.10249 7124 ft 257 kts 19°
2026-04-26 22:07 55.79401 -3.09089 6762 ft 256 kts 19°
2026-04-26 22:07 55.81051 -3.07963 6370 ft 253 kts 15°
2026-04-26 22:07 55.82758 -3.07254 5990 ft 250 kts
2026-04-26 22:08 55.84462 -3.06630 5612 ft 250 kts
2026-04-26 22:08 55.86180 -3.05994 5243 ft 254 kts
2026-04-26 22:08 55.87920 -3.05346 4867 ft 257 kts
2026-04-26 22:08 55.89685 -3.04686 4475 ft 260 kts
2026-04-26 22:09 55.91465 -3.04019 4093 ft 263 kts
2026-04-26 22:09 55.93256 -3.03351 3816 ft 258 kts
2026-04-26 22:09 55.94969 -3.02705 3620 ft 245 kts
2026-04-26 22:09 55.96600 -3.02086 3432 ft 234 kts
2026-04-26 22:10 55.98161 -3.01493 3220 ft 224 kts
2026-04-26 22:10 55.99679 -3.01498 3060 ft 216 kts 348°
2026-04-26 22:10 56.01168 -3.01890 3023 ft 216 kts 349°
2026-04-26 22:10 56.02635 -3.02282 2996 ft 214 kts 343°
2026-04-26 22:11 56.03841 -3.03616 2985 ft 200 kts 301°
2026-04-26 22:11 56.04283 -3.05842 3015 ft 185 kts 282°
2026-04-26 22:11 56.04529 -3.08043 2990 ft 179 kts 270°
2026-04-26 22:11 56.04121 -3.10080 3015 ft 175 kts 239°
2026-04-26 22:12 56.03519 -3.11995 3007 ft 177 kts 243°
2026-04-26 22:12 56.02907 -3.13920 2936 ft 176 kts 241°
2026-04-26 22:12 56.02294 -3.15748 2706 ft 165 kts 241°
2026-04-26 22:12 56.01718 -3.17442 2496 ft 155 kts 241°
2026-04-26 22:13 56.01174 -3.19045 2325 ft 151 kts 241°
2026-04-26 22:13 56.00635 -3.20630 2106 ft 145 kts 241°
2026-04-26 22:13 56.00121 -3.22142 1906 ft 139 kts 241°
2026-04-26 22:13 55.99620 -3.23618 1723 ft 140 kts 241°
2026-04-26 22:14 55.99113 -3.25111 1525 ft 141 kts 240°
2026-04-26 22:14 55.98611 -3.26588 1336 ft 140 kts 240°
2026-04-26 22:14 55.98113 -3.28055 1146 ft 137 kts 240°
2026-04-26 22:14 55.97616 -3.29523 963 ft 138 kts 240°
2026-04-26 22:15 55.97130 -3.30994 735 ft 138 kts 240°
2026-04-26 22:15 55.96641 -3.32457 545 ft 136 kts 239°
2026-04-26 22:15 55.96148 -3.33905 366 ft 140 kts 239°
2026-04-26 22:15 55.95634 -3.35407 211 ft 144 kts 240°
2026-04-26 22:16 55.95128 -3.36894 122 ft 134 kts 234°
2026-04-26 22:16 55.94708 -3.38113 114 ft 86 kts 238°
2026-04-26 22:16 55.94506 -3.38701 112 ft 30 kts 238°
2026-04-26 22:16 55.94402 -3.38959 111 ft 15 kts 197°
2026-04-26 22:17 55.94312 -3.38890 115 ft 15 kts 147°
2026-04-26 22:17 55.94305 -3.38736 112 ft 15 kts 57°
2026-04-26 22:17 55.94363 -3.38566 115 ft 17 kts 62°
2026-04-26 22:17 55.94428 -3.38373 115 ft 19 kts 58°
2026-04-26 22:18 55.94499 -3.38161 113 ft 21 kts 59°
2026-04-26 22:18 55.94576 -3.37930 113 ft 22 kts 59°
2026-04-26 22:18 55.94660 -3.37683 113 ft 24 kts 59°
2026-04-26 22:18 55.94748 -3.37418 112 ft 26 kts 59°
2026-04-26 22:19 55.94841 -3.37144 113 ft 24 kts 59°
2026-04-26 22:19 55.94911 -3.36938 114 ft 19 kts 59°
2026-04-26 22:19 55.94915 -3.36822 115 ft 10 kts 127°
2026-04-26 22:19 55.94907 -3.36714 112 ft 11 kts 62°
2026-04-26 22:20 55.94931 -3.36613 115 ft 6 kts 109°
2026-04-26 22:20 55.94899 -3.36569 115 ft 1 kts 149°
2026-04-26 22:20 55.94888 -3.36556 114 ft 2 kts 148°
2026-04-26 22:20 55.94885 -3.36553 115 ft 0 kts 148°